Simultaneous Nadir Overpasses (SNOs) Predictions

Prediction of SNOs between AQUA and NOAA-19 Satellite Orbit:

Table of predicted SNOs for the next 14.0 days since TLE Epoch: 5/18/2018
Index Date (AQUA) Time (AQUA) Lat,Lon (AQUA) SZA (AQUA ) Date (NOAA-19) Time (NOAA-19) Lat,Lon (NOAA-19) SZA (NOAA-19 ) Distance(km) Time Diff (sec)
1 05/18/2018 20:43:04 -80.80, 10.94 116.91 05/18/2018 20:42:55 -80.82, 11.10 116.91 3.15 9
2 05/21/2018 02:16:48 80.81, 107.41 62.64 05/21/2018 02:16:28 80.81, 107.53 62.64 2.24 20
3 05/23/2018 07:50:30 -80.81,-155.99 117.80 05/23/2018 07:50:09 -80.81,-155.93 117.79 0.99 21
4 05/23/2018 08:39:57 80.81, 11.71 62.19 05/23/2018 08:41:04 80.82, 11.68 62.17 1.60 67
5 05/25/2018 13:24:13 80.80, -59.30 61.78 05/25/2018 13:23:41 80.81, -59.48 61.82 3.30 32
6 05/25/2018 14:13:39 -80.80, 108.33 118.22 05/25/2018 14:14:45 -80.82, 108.33 118.24 1.88 66
7 05/27/2018 18:57:55 -80.80, 37.32 118.60 05/27/2018 18:57:22 -80.81, 37.26 118.57 1.63 33
8 05/27/2018 19:47:23 80.82,-155.39 61.46 05/27/2018 19:48:17 80.81,-155.37 61.42 1.71 54
9 05/30/2018 00:31:38 80.80, 133.89 61.06 05/30/2018 00:30:53 80.80, 133.81 61.10 1.68 45
10 05/30/2018 01:21:05 -80.82, -58.75 118.90 05/30/2018 01:21:59 -80.81, -58.91 118.92 3.29 54
11 06/01/2018 06:05:21 -80.82,-129.80 119.21 06/01/2018 06:04:35 -80.80,-129.69 119.21 2.85 46




NCC Satellite Simultaneous Nadir Overpasses (SNOs) Prediction Service
